Location: Champseau
(45.8333°N, 1.7667°E)
Time: 08:58:50
(UTC+00:00)

ITUPSAT 1 - Pass Details

Date: 02 December 2021
Orbit: 700 x 713 km, 98.6° (Epoch: 27 January)

Event Time Altitude Azimuth Distance (km) Brightness Sun altitude
Rises 05:51:12 0° 139° (SE) 3,088 ? -14.1°
Reaches altitude 10° 05:53:36 10° 130° (SE) 2,176 ? -13.7°
Maximum altitude 05:57:52 33° 66° (ENE) 1,176 ? -13.0°
Drops below altitude 10° 06:02:09 10° 3° (N) 2,197 ? -12.3°
Sets 06:04:35 0° 354° (N) 3,122 ? -11.9°
